Weather History for KFAR - September, 2013

Change the Weather History Date:

Sunday, September 29, 2013

  Actual Average Record
Temperature  
Mean Temperature 62 °F 53 °F  
Max Temperature 78 °F 65 °F 96 °F (1897)
Min Temperature 45 °F 42 °F 22 °F (1899)
Degree Days  
Heating Degree Days 3 12  
Month to date heating degree days 89 207  
Since 1 July heating degree days 123 257  
Cooling Degree Days 0 0  
Month to date cooling degree days 81 43  
Year to date cooling degree days 699 548  
Growing Degree Days 12 (Base 50)    
Moisture  
Dew Point 44 °F    
Average Humidity 58    
Maximum Humidity 83    
Minimum Humidity 33    
Precipitation  
Precipitation 0.00 in 0.08 in 1.55 in (1995)
Month to date precipitation 4.39 2.49  
Year to date precipitation 26.31 18.55  
Snow  
Snow 0.00 in 0.00 in - ()
Month to date snowfall 0.0 0.0  
Since 1 July snowfall 0.0 0.0  
Since 1 September snowfall 0.0 0.0  
Snow Depth 0.00 in    
Sea Level Pressure  
Sea Level Pressure 29.72 in    
Wind  
Wind Speed 10 mph (South)    
Max Wind Speed 17 mph    
Max Gust Speed 24 mph    
Visibility 10 miles    
Events      
T = Trace of Precipitation, MM = Missing Value Source: NWS Daily Summary

Daily Weather History Graph

Daily Weather History Graph

Search for Another Location

Airport or City:

Trip Planner

Search our weather history database for the weather conditions in past years. The results will help you decide how hot, cold, wet, or windy it might be!

Date:

Astronomy

Sep. 29, 2013 Rise Set
Actual Time 7:23 AM CDT 7:10 PM CDT
Civil Twilight 6:53 AM CDT 7:40 PM CDT
Nautical Twilight 6:18 AM CDT 8:15 PM CDT
Astronomical Twilight 5:41 AM CDT 8:51 PM CDT
Moon 1:49 AM CDT (9/29) 4:22 PM CDT (9/29)
Length of Visible Light 12h 47m
Length of Day
11h 46m
Waning Crescent, 27% of the Moon is Illuminated
Sep 29
Waning Crescent
Oct 4
New
Oct 11
First Quarter
Oct 18
Full
Oct 26
Last Quarter

Hourly Weather History & Observations

Time (CDT) Temp. Windchill Dew Point Humidity Pressure Visibility Wind Dir Wind Speed Gust Speed Precip Events Conditions
12:53 AM 50.0 °F - 42.1 °F 74% 29.83 in 10.0 mi SW 10.4 mph - N/A   Clear
1:53 AM 46.9 °F - 41.0 °F 80% 29.84 in 10.0 mi SSW 8.1 mph - N/A   Clear
2:53 AM 46.9 °F - 41.0 °F 80% 29.83 in 10.0 mi SSW 8.1 mph - N/A   Clear
3:53 AM 46.0 °F 41.4 °F 39.9 °F 79% 29.83 in 10.0 mi South 9.2 mph - N/A   Clear
4:53 AM 46.0 °F 41.9 °F 39.9 °F 79% 29.83 in 10.0 mi South 8.1 mph - N/A   Clear
5:53 AM 46.9 °F - 39.9 °F 77% 29.83 in 10.0 mi SSW 9.2 mph - N/A   Clear
6:53 AM 45.0 °F 40.6 °F 39.0 °F 80% 29.83 in 10.0 mi South 8.1 mph - N/A   Clear
7:53 AM 48.0 °F - 39.9 °F 74% 29.83 in 10.0 mi South 6.9 mph - N/A   Clear
8:53 AM 51.1 °F - 41.0 °F 68% 29.82 in 10.0 mi South 8.1 mph - N/A   Clear
9:53 AM 55.0 °F - 42.1 °F 62% 29.80 in 10.0 mi South 9.2 mph - N/A   Clear
10:53 AM 61.0 °F - 45.0 °F 56% 29.79 in 10.0 mi South 11.5 mph - N/A   Clear
11:53 AM 66.9 °F - 46.9 °F 49% 29.76 in 10.0 mi South 13.8 mph - N/A   Clear
12:53 PM 70.0 °F - 46.9 °F 44% 29.74 in 10.0 mi South 11.5 mph - N/A   Clear
1:53 PM 71.1 °F - 48.9 °F 45% 29.71 in 10.0 mi SSE 8.1 mph - N/A   Clear
2:53 PM 73.0 °F - 48.0 °F 41% 29.68 in 10.0 mi SSE 8.1 mph - N/A   Clear
3:53 PM 77.0 °F - 46.0 °F 33% 29.65 in 10.0 mi South 12.7 mph 21.9 mph N/A   Clear
4:53 PM 75.9 °F - 45.0 °F 33% 29.63 in 10.0 mi SSE 17.3 mph 24.2 mph N/A   Clear
5:53 PM 73.9 °F - 46.0 °F 37% 29.63 in 10.0 mi SSE 10.4 mph - N/A   Clear
6:53 PM 71.1 °F - 46.0 °F 41% 29.61 in 10.0 mi SSE 9.2 mph - N/A   Clear
7:53 PM 70.0 °F - 45.0 °F 41% 29.61 in 10.0 mi SE 9.2 mph - N/A   Clear
8:53 PM 66.9 °F - 46.0 °F 47% 29.60 in 10.0 mi SE 10.4 mph - N/A   Clear
9:53 PM 66.0 °F - 46.0 °F 48% 29.57 in 10.0 mi SE 12.7 mph - N/A   Clear
10:53 PM 66.0 °F - 46.0 °F 48% 29.54 in 10.0 mi SSE 11.5 mph 20.7 mph N/A   Clear
11:53 PM 64.0 °F - 46.0 °F 52% 29.52 in 10.0 mi SSE 11.5 mph - N/A   Clear